Regional Weather Roundup
Issued by NWS

Home | Current Version | Previous Version | Text Only | Print | Product List | Glossary On
Versions: 1 2 3 4 5 6 7 8 9 10 11 12 13 14 15 16 17 18 19 20 21 22 23 24 25 26 27 28 29 30 31 32 33 34 35 36 37 38 39 40 41 42 43 44 45 46 47 48 49 50
000
ASCA44 KEWX 302220
RWRMX

LATIN AMERICA AND CARIBBEAN REGIONAL WEATHER ROUNDUP
NATIONAL WEATHER SERVICE AUSTIN/SAN ANTONIO TX
500 PM CDT FRI SEP 30 2016

NOTE: "FAIR" INDICATED FEW OR NO CLOUDS BELOW 12,000 FEET WITH NO
SIGNIFICANT WEATHER AND/OR OBSTRUCTIONS TO VISIBILITY.

BAJA CALIFORNIA

CITY           SKY/WX    TMP DP  RH WIND       PRES   REMARKS
LORETO         MOSUNNY   90  77  66 E7        29.88F HX 102
LA PAZ         PTSUNNY   90  68  48 N12       29.89F HX  93
MEXICALI       MOSUNNY   99  46  16 SE2       29.88F HX  95
S.J. DEL CABO  CLOUDY    86  72  62 SE6       29.91F HX  92
TIJUANA        SUNNY     82  59  44 W10       29.88F

NORTHWESTERN MEXICO

CITY           SKY/WX    TMP DP  RH WIND       PRES   REMARKS
CULIACAN       CLOUDY    90  75  62 CALM      29.90S HX 100
DURANGO        PTSUNNY   72  57  60 E5        30.25F
GUAYMAS          N/A    N/A N/A N/A MISG        N/A
HERMOSILLO     MOSUNNY   99  66  34 W7        29.92F HX 102
CD. JUAREZ     MOSUNNY   77  64  65 S7        30.10F
LOS MOCHIS     PTSUNNY   90  70  51 W9        29.90F HX  95
OBREGON        MOSUNNY   93  72  49 W2        29.85F HX 100

NORTHEASTERN MEXICO

CITY           SKY/WX    TMP DP  RH WIND       PRES   REMARKS
CHIHUAHUA      CLOUDY    72  61  68 E8        30.20F
MATAMOROS        N/A    N/A N/A N/A MISG        N/A
MONCLOVA         N/A    N/A N/A N/A MISG        N/A
MONTERREY      PTSUNNY   82  61  47 E7        30.07F
NUEVO LAREDO   PTSUNNY   82  55  39 CALM      30.08F
PIEDRAS NEGRAS MOSUNNY   82  57  42 CALM      30.12F
REYNOSA        PTSUNNY   86  54  32 NE7       30.03F
SALTILLO       MOSUNNY   73  59  60 N12       30.25F
TORREON        CLOUDY    81  64  57 CALM      30.12F
CD. VICTORIA   PTSUNNY   86  59  39 NW7       30.05F

WESTERN MEXICO

CITY           SKY/WX    TMP DP  RH WIND       PRES   REMARKS
AGUASCALIENTES PTSUNNY   73  57  56 NE14      30.27F
COLIMA         PTSUNNY   82  72  69 W7        29.98F
DEL BAJIO      PTSUNNY   72  61  68 NE15      30.29F
GUADALAJARA    PTSUNNY   79  61  53 SW7       30.18F
MANZANILLO     MOSUNNY   88  75  66 S12       29.82F HX  97
MAZATLAN       PTSUNNY   88  75  66 W9        29.87F HX  97
P. VALLARTA    PTSUNNY   86  75  70 SW9       29.86F HX  95
URUAPAN        PTSUNNY   72  64  78 SE9       30.20F THUNDER
ZACATECAS      RAIN      63  54  72 S8        30.31S

CENTRAL MEXICO

CITY           SKY/WX    TMP DP  RH WIND       PRES   REMARKS
CUERNAVACA     PTSUNNY   81  63  54 S7        30.09F
MEXICO CITY    TSTM      61  55  82 NE15      30.33R
MORELIA        PTSUNNY   77  57  50 CALM      30.22F
POZA RICA      PTSUNNY   88  75  66 NE9       30.01F HX  97
PUEBLA         TSTM      57  54  88 SE5       30.35R
QUERETARO      PTSUNNY   77  55  47 NE17      30.30F
S. LUIS POTOSI CLOUDY    68  54  60 E9        30.28F
TAMPICO        PTSUNNY   82  73  74 NW18      30.00F
TOLUCA         PTSUNNY   68  48  49 NW3       30.37F

SOUTHERN MEXICO

CITY           SKY/WX    TMP DP  RH WIND       PRES   REMARKS
ACAPULCO         N/A    N/A N/A N/A MISG        N/A
B. DE HUATULCO PTSUNNY   84  75  74 SW10      29.92F HX  92
OAXACA         CLOUDY    79  52  38 N7        30.16F
P. ESCONDIDO   CLOUDY    84  79  84 W10       29.96F HX  96
VERACRUZ       PTSUNNY   86  75  70 NE10      29.96S HX  95
ZIHUATANEJO    MOSUNNY   88  75  66 SW9       29.85F HX  97

YUCATAN PENINSULA

CITY           SKY/WX    TMP DP  RH WIND       PRES   REMARKS
CAMPECHE       MOSUNNY   86  79  79 NW14      29.88S HX  99
CANCUN         PTSUNNY   79  75  89 W5        29.94S
CHETUMAL       PTSUNNY   86  77  74 CALM      29.88F HX  97
CD. DEL CARMEN PTSUNNY   88  73  62 N10       29.91S HX  96
COZUMEL        PTSUNNY   86  79  79 MISG      29.93F HX  99
MERIDA         PTSUNNY   90  75  62 N6        29.90F HX 100
MINATITLAN     CLOUDY    81  68  65 N12       29.88F
TAPACHULA      PTSUNNY   86  79  79 W7        29.80S HX  99
TUX. GUTIERREZ PTSUNNY   82  70  65 W12       29.92F
VILLAHERMOSA   PTSUNNY   84  75  74 N9        29.92F HX  92

CENTRAL AMERICA

CITY           SKY/WX    TMP DP  RH WIND       PRES   REMARKS
BELIZE CITY    MOSUNNY   86  79  79 E2        29.90F HX  99
MANAGUA        PTCLDY    91  70  49 NE12      29.77S HX  97

CARIBBEAN

CITY           SKY/WX    TMP DP  RH WIND       PRES   REMARKS
ARUBA          PTCLDY    82  79  89 SE13      29.62S HX  93
CURACAO        PTCLDY    82  77  83 E15       29.68  HX  91
KINGSTON       MOSUNNY   91  75  59 W10       29.77S HX 102
NASSAU         MOSUNNY   84  77  79 NE6       29.98S HX  94
SAN JUAN       MOCLDY    81  77  89 E5        29.86F
SANTO DOMINGO  MOCLDY    82  75  78 NE7       29.83R
ST. CROIX      CLEAR     81  75  83 NE7       29.84F
ST. KITTS      PTCLDY    82  75  78 E15       29.86R
ST. MAARTEN    PTCLDY    84  75  74 E14       29.86S HX  92
ST. THOMAS     CLEAR     84  73  70 E15       29.84S HX  91

$$





USA.gov is the U.S. government's official web portal to all federal, state and local government web resources and services.